Wind_Speed
104 101 98 96 93 91 88 83 81 80 78 77 78 76 75 77 77 79 79 78 81 79 82 84 83 83 84 81 81 81 78 75 77 78 77 74 74 76 77 76 75 75 74
106 102 100 97 95 93 90 88 85 85 83 80 81 79 79 79 79 79 81 80 81 83 83 84 84 83 81 81 81 77 76 77 76 76 75 77 78 81 79 76 75 75 73
107 105 104 100 98 95 94 92 89 87 85 85 85 83 83 83 84 85 82 86 86 85 85 83 83 82 82 81 77 76 79 79 76 77 78 78 80 80 80 78 78 77 79
112 109 106 103 102 101 98 95 94 91 90 89 89 88 87 85 84 83 84 87 87 85 85 82 82 83 84 80 79 79 81 78 77 80 80 81 82 81 82 81 82 81 79
116 112 109 106 105 104 102 99 97 96 95 94 94 92 88 82 82 82 85 85 84 82 81 83 84 83 81 81 82 83 80 80 81 82 83 82 86 84 82 81 84 85 84
118 115 112 109 108 107 106 104 102 100 98 98 96 94 87 87 84 84 84 84 82 81 82 82 82 82 83 83 85 85 84 84 85 85 85 86 87 86 87 89 85 86 88
116 115 115 114 112 110 109 108 107 105 104 100 95 90 86 89 88 88 88 84 81 82 85 86 85 83 83 85 87 89 88 89 88 89 90 90 92 91 91 92 92 90 92
113 113 114 113 112 110 107 102 98 97 92 87 84 83 85 86 86 87 82 83 83 85 86 85 86 88 89 89 89 91 91 91 93 95 96 96 97 96 95 93 94 96 98
112 109 106 103 106 107 104 102 100 99 98 90 87 86 85 84 85 81 82 81 82 82 85 88 91 94 95 97 100 98 97 97 100 101 102 102 102 104 102 95 85 93 94
107 108 106 106 105 102 96 95 94 93 90 89 85 86 84 78 78 79 80 81 83 86 90 93 94 97 101 103 105 106 107 109 109 110 110 110 109 108 103 95 94 99 92
97 100 104 104 99 98 94 87 80 78 78 81 81 78 76 74 76 79 81 83 86 90 93 98 101 104 107 112 114 116 117 118 119 120 121 120 115 110 104 93 95 89 96
86 89 92 87 84 76 73 75 74 73 73 70 70 70 74 78 80 82 84 87 90 96 101 105 111 116 118 120 123 125 127 130 130 127 122 116 112 110 106 103 101 102 99
80 76 70 71 69 66 67 66 66 65 68 71 74 76 79 81 84 86 90 94 96 101 106 111 116 121 123 121 114 110 111 112 112 113 112 112 109 105 105 102 99 98 94
78 73 71 71 69 68 68 69 69 69 71 75 77 80 82 86 88 90 93 97 100 103 107 114 121 114 105 99 96 93 93 95 97 100 100 100 99 98 97 93 92 89 88
79 75 73 70 70 69 68 69 69 71 74 78 81 83 84 86 90 94 94 98 102 109 100 95 93 96 90 87 80 73 71 73 79 79 82 87 88 87 87 82 79 81 82
78 79 77 74 73 73 72 72 72 73 75 77 79 81 85 87 91 96 98 105 88 84 74 69 63 72 64 54 48 43 41 42 53 63 68 71 67 63 62 62 64 66 67
72 79 79 81 77 74 75 78 79 80 83 85 87 88 91 93 96 97 84 78 67 58 49 45 43 44 47 38 30 27 24 27 26 27 30 33 34 36 42 46 47 48 50
62 64 68 75 81 84 86 85 85 86 88 91 93 95 94 88 76 68 64 59 49 42 40 38 41 40 38 36 24 18 15 14 16 15 17 19 22 24 28 32 37 42 47
49 49 50 54 63 69 70 72 76 80 80 76 72 69 64 61 55 52 51 47 38 38 38 37 38 39 38 35 31 29 26 22 19 20 20 22 26 31 35 41 46 50 55
43 44 46 49 50 54 54 55 56 55 56 55 53 52 52 48 48 46 44 40 36 37 37 37 38 38 36 31 27 25 24 24 25 27 30 32 35 39 44 49 54 59 63
43 46 46 47 49 50 50 49 46 45 46 47 46 45 44 43 41 41 41 38 35 34 35 36 39 39 37 33 31 32 32 34 36 37 39 42 45 48 52 56 61 66 70
46 46 48 46 43 41 39 38 40 42 41 40 39 40 42 40 38 36 36 35 34 33 34 37 40 40 38 36 35 36 36 40 41 43 44 47 50 54 58 62 67 72 76
43 42 38 35 34 35 35 34 34 34 34 35 35 37 38 38 37 35 34 31 33 34 35 39 41 41 38 38 37 39 42 45 44 45 47 51 55 60 64 68 72 75 78
32 30 32 31 30 29 30 29 30 30 30 32 32 34 37 38 36 34 30 31 33 36 39 41 43 42 41 40 41 44 45 46 48 51 54 59 64 68 71 73 74 78 83
30 30 28 26 26 26 27 29 32 34 35 36 36 36 37 34 32 31 31 33 37 40 42 44 44 43 43 43 44 47 49 52 54 57 63 68 72 73 74 75 78 81 73
28 26 26 28 27 29 31 34 36 36 36 35 34 35 34 30 30 32 34 38 41 42 43 43 43 44 45 47 48 51 53 57 60 64 69 72 76 75 76 79 80 69 69
Wind_Direction
237 238 242 245 247 248 250 252 255 258 261 264 266 268 270 274 276 278 280 281 283 284 285 287 287 289 289 290 289 289 290 291 292 293 296 295 298 300 304 306 308 309 311
236 239 242 245 248 249 251 253 255 258 260 263 265 269 272 273 275 277 278 280 281 283 284 285 286 288 287 288 286 287 288 290 291 293 295 296 300 301 304 305 305 306 305
236 238 241 244 247 249 251 253 256 260 261 262 265 268 271 272 274 275 277 278 280 281 283 284 285 285 286 284 283 285 288 290 291 291 294 295 296 300 301 301 302 303 304
235 237 240 243 246 249 251 253 255 258 260 262 264 269 270 272 273 275 276 277 280 280 282 282 282 282 284 283 283 285 287 288 288 291 291 293 295 296 297 299 301 301 301
236 237 239 242 244 247 251 254 256 258 260 262 264 267 269 270 272 273 276 278 280 280 280 281 281 281 281 283 285 286 287 287 288 289 291 291 292 295 296 298 299 300 299
238 240 241 242 245 247 249 252 255 258 260 263 265 266 269 269 271 273 276 278 278 278 278 277 280 282 283 285 286 286 287 287 287 288 288 287 289 291 294 297 296 294 296
241 242 243 244 246 248 250 253 255 258 260 263 266 267 268 269 271 274 276 277 276 276 277 277 277 279 281 282 284 285 285 285 287 286 285 287 288 290 293 296 294 291 291
240 243 245 247 248 250 252 255 257 258 262 264 264 266 267 272 273 276 274 275 275 276 277 280 281 281 281 280 280 281 283 283 282 281 283 285 286 289 292 294 293 289 293
238 240 242 245 248 251 254 255 257 258 260 264 264 266 270 274 275 273 274 275 277 278 279 279 280 280 280 280 282 282 281 280 280 280 280 282 284 287 289 291 283 283 293
238 240 242 244 246 249 251 254 257 259 259 261 262 265 269 269 270 272 274 275 276 276 278 279 279 278 279 279 280 280 280 280 279 280 281 283 284 285 285 286 276 286 288
237 239 242 245 249 250 255 255 254 255 254 257 263 265 265 267 269 269 270 272 275 276 277 278 278 278 279 280 281 281 281 280 281 282 283 283 283 283 282 279 279 276 283
236 239 243 246 249 248 251 253 258 256 261 260 263 263 264 265 266 269 270 272 275 276 278 279 281 282 283 283 283 282 282 281 281 282 281 280 281 280 280 279 279 277 280
230 234 237 242 246 247 249 252 253 254 255 256 258 260 262 264 266 269 271 274 277 276 278 281 283 284 286 286 285 282 280 278 277 276 276 276 277 278 277 278 279 278 278
228 231 235 239 239 241 245 249 250 252 254 256 257 259 261 265 269 270 272 275 277 279 282 286 288 291 293 292 288 285 281 277 275 273 274 273 273 275 275 276 277 276 277
228 230 233 235 239 245 248 249 251 253 256 257 259 261 263 266 268 271 275 278 283 286 290 291 294 297 299 296 291 287 281 274 268 268 269 272 273 275 275 272 273 274 275
229 232 235 238 241 245 248 250 251 253 256 258 260 263 266 270 274 277 282 286 288 290 293 295 297 302 304 300 296 296 285 275 267 269 272 274 275 275 275 273 274 275 278
233 233 235 238 241 245 248 250 253 256 258 262 265 268 272 275 279 283 283 285 288 290 293 299 314 335 335 321 312 307 299 288 292 292 289 287 285 282 279 281 283 285 285
241 242 243 243 245 248 251 254 258 261 263 265 269 272 276 277 278 279 280 285 286 287 287 303 317 330 343 357 0 8 16 12 352 333 321 315 311 301 294 292 291 290 289
238 239 241 243 247 250 254 256 258 262 265 268 271 272 272 274 277 275 277 283 284 287 293 306 321 329 335 340 350 1 5 0 345 337 322 313 309 304 302 300 298 296 295
232 234 237 241 243 247 251 255 258 261 263 265 266 270 274 276 277 270 274 278 280 286 298 308 318 323 327 332 338 342 341 336 329 325 322 317 311 307 305 303 302 301 299
234 237 243 247 254 256 254 255 256 257 261 266 269 273 276 280 277 273 275 273 277 282 294 307 314 317 320 324 328 330 329 328 325 320 317 314 311 308 306 304 303 302 300
239 245 251 255 251 250 250 254 258 260 263 266 268 273 276 279 278 276 272 273 269 282 294 305 308 312 317 318 319 320 319 318 316 314 313 311 309 307 305 303 302 301 301
246 245 245 243 245 252 254 256 260 262 264 264 268 274 281 277 274 274 274 268 275 287 295 300 305 310 311 309 311 315 316 315 312 310 309 308 307 306 305 305 305 305 305
229 230 238 244 248 252 255 257 259 258 263 265 270 274 280 275 271 270 272 274 284 291 295 300 304 307 307 308 311 311 310 308 308 308 307 306 306 307 309 309 309 309 309
227 231 237 242 247 258 264 265 267 269 271 270 270 272 275 273 271 268 272 279 284 289 294 299 303 306 307 306 307 308 307 307 308 307 306 307 308 310 312 313 313 311 310
228 233 238 241 254 266 269 269 269 271 272 268 265 268 271 271 268 270 275 279 284 290 296 300 303 304 305 305 306 306 306 307 307 308 308 309 311 315 316 316 315 314 313
Height
10687 10696 10704 10713 10722 10730 10735 10742 10746 10748 10754 10756 10756 10758 10761 10762 10761 10761 10760 10758 10756 10753 10752 10751 10748 10746 10742 10738 10733 10729 10726 10723 10717 10712 10710 10707 10703 10698 10695 10692 10686 10681 10677
10678 10688 10695 10702 10709 10717 10724 10728 10733 10735 10741 10746 10744 10749 10750 10750 10749 10748 10745 10745 10743 10741 10738 10735 10734 10731 10728 10724 10718 10714 10711 10707 10703 10699 10696 10693 10690 10683 10680 10678 10673 10669 10662
10668 10675 10680 10689 10696 10705 10710 10715 10721 10722 10728 10731 10732 10736 10738 10735 10735 10732 10732 10730 10730 10727 10725 10720 10717 10715 10713 10709 10704 10699 10697 10693 10690 10684 10682 10677 10674 10669 10665 10663 10658 10655 10649
10654 10662 10671 10679 10685 10690 10696 10701 10705 10710 10714 10718 10722 10722 10723 10723 10719 10719 10718 10715 10714 10711 10708 10707 10702 10699 10696 10692 10688 10685 10682 10678 10675 10669 10665 10663 10658 10655 10652 10645 10642 10637 10633
10639 10649 10658 10665 10672 10677 10682 10687 10691 10696 10700 10704 10707 10708 10710 10707 10704 10703 10703 10700 10698 10695 10692 10689 10686 10682 10680 10676 10671 10667 10666 10661 10659 10654 10649 10646 10641 10638 10633 10632 10624 10619 10614
10625 10634 10644 10651 10658 10663 10670 10675 10678 10682 10686 10688 10690 10693 10692 10692 10690 10687 10687 10684 10683 10680 10678 10675 10671 10666 10660 10657 10652 10648 10647 10641 10638 10638 10632 10630 10625 10623 10617 10613 10611 10604 10598
10612 10621 10629 10637 10644 10650 10655 10660 10665 10670 10673 10674 10673 10675 10675 10675 10676 10672 10671 10671 10668 10664 10657 10655 10656 10651 10646 10641 10635 10629 10627 10622 10618 10615 10614 10613 10606 10604 10602 10597 10590 10587 10583
10597 10606 10614 10623 10631 10637 10643 10647 10651 10654 10657 10658 10658 10659 10659 10659 10659 10658 10655 10655 10650 10646 10641 10636 10632 10629 10625 10622 10620 10615 10609 10604 10601 10598 10597 10594 10588 10585 10586 10581 10571 10563 10562
10584 10592 10600 10609 10616 10624 10629 10634 10638 10640 10643 10644 10644 10645 10644 10643 10643 10642 10639 10637 10634 10628 10622 10618 10611 10605 10602 10599 10595 10593 10590 10586 10581 10579 10576 10574 10571 10568 10568 10566 10555 10541 10543
10570 10579 10587 10594 10602 10608 10614 10619 10623 10625 10627 10629 10631 10631 10631 10630 10629 10627 10624 10621 10614 10610 10604 10600 10594 10585 10579 10574 10569 10566 10564 10560 10555 10553 10550 10550 10549 10546 10548 10551 10539 10528 10527
10557 10566 10574 10581 10588 10594 10600 10604 10608 10611 10613 10616 10618 10618 10617 10617 10615 10612 10608 10603 10598 10591 10585 10579 10572 10564 10557 10552 10545 10540 10534 10528 10525 10523 10519 10518 10519 10520 10522 10528 10524 10504 10508
10546 10553 10561 10568 10575 10581 10585 10589 10593 10596 10600 10602 10603 10602 10602 10600 10598 10595 10592 10587 10583 10576 10568 10559 10550 10539 10533 10527 10519 10511 10504 10498 10494 10489 10488 10488 10492 10490 10492 10493 10495 10492 10487
10535 10543 10551 10557 10564 10568 10572 10576 10580 10584 10586 10587 10587 10587 10586 10584 10581 10579 10574 10571 10566 10557 10550 10540 10528 10515 10509 10500 10486 10474 10468 10465 10463 10462 10463 10464 10465 10465 10466 10466 10466 10465 10461
10525 10533 10539 10544 10549 10552 10557 10561 10566 10569 10571 10571 10571 10572 10570 10568 10565 10561 10558 10553 10546 10540 10531 10521 10504 10485 10474 10459 10446 10437 10433 10433 10434 10436 10438 10439 10441 10442 10443 10443 10442 10440 10436
10513 10520 10525 10532 10536 10542 10546 10548 10551 10553 10554 10555 10556 10555 10553 10549 10546 10542 10541 10536 10529 10521 10508 10498 10482 10462 10446 10428 10415 10407 10403 10403 10408 10413 10415 10418 10420 10420 10420 10419 10418 10416 10414
10499 10506 10514 10520 10524 10529 10533 10534 10536 10536 10537 10538 10539 10538 10536 10533 10530 10526 10522 10517 10508 10500 10493 10483 10469 10447 10427 10409 10399 10391 10388 10387 10390 10395 10400 10400 10401 10400 10399 10400 10399 10397 10396
10486 10494 10500 10505 10510 10513 10515 10518 10520 10521 10522 10522 10522 10522 10518 10517 10513 10510 10501 10498 10493 10487 10482 10471 10458 10439 10418 10403 10393 10383 10380 10379 10383 10385 10387 10388 10388 10388 10388 10387 10386 10384 10381
10475 10482 10486 10491 10495 10498 10502 10505 10506 10506 10506 10505 10506 10504 10503 10500 10499 10492 10487 10484 10480 10475 10470 10461 10449 10436 10422 10407 10395 10387 10383 10382 10383 10385 10385 10384 10382 10382 10381 10379 10376 10373 10370
10464 10468 10472 10476 10481 10485 10489 10489 10489 10490 10490 10490 10489 10488 10486 10485 10483 10478 10475 10472 10469 10465 10459 10451 10441 10431 10421 10410 10400 10392 10387 10387 10387 10384 10385 10383 10380 10377 10374 10371 10366 10362 10356
10454 10458 10463 10466 10470 10472 10474 10474 10475 10477 10476 10475 10474 10473 10473 10471 10467 10464 10462 10461 10459 10455 10450 10443 10435 10427 10419 10411 10403 10397 10393 10389 10387 10384 10380 10377 10373 10369 10365 10360 10353 10346 10338
10446 10449 10453 10456 10458 10461 10461 10462 10463 10464 10463 10463 10463 10462 10460 10458 10455 10453 10452 10451 10450 10446 10442 10435 10428 10421 10414 10407 10400 10395 10390 10386 10382 10378 10374 10369 10364 10359 10353 10346 10338 10330 10320
10437 10439 10443 10445 10446 10448 10450 10451 10453 10453 10453 10452 10451 10450 10449 10447 10445 10444 10443 10442 10440 10437 10432 10426 10420 10414 10407 10401 10396 10391 10386 10382 10376 10370 10365 10359 10353 10347 10341 10333 10324 10314 10304
10427 10430 10433 10435 10437 10439 10441 10441 10442 10442 10441 10441 10441 10441 10439 10437 10436 10435 10435 10433 10431 10428 10423 10419 10414 10407 10401 10396 10390 10384 10378 10373 10368 10362 10356 10350 10343 10336 10328 10319 10309 10297 10284
10418 10422 10426 10428 10429 10430 10431 10431 10432 10432 10432 10432 10432 10431 10429 10428 10427 10427 10425 10424 10422 10418 10414 10410 10404 10398 10393 10387 10382 10377 10372 10366 10360 10353 10346 10338 10330 10321 10312 10300 10288 10275 10260
10413 10416 10417 10419 10421 10423 10423 10423 10423 10423 10423 10423 10423 10422 10421 10420 10419 10418 10417 10415 10412 10409 10405 10400 10395 10389 10384 10378 10373 10367 10361 10355 10349 10342 10333 10323 10313 10304 10293 10281 10268 10252 10237
10406 10409 10411 10413 10414 10415 10415 10415 10414 10414 10414 10414 10414 10413 10412 10411 10410 10409 10408 10406 10403 10399 10395 10390 10385 10379 10373 10368 10363 10357 10351 10344 10337 10328 10318 10307 10296 10285 10274 10260 10244 10230 10217